Location: *
(28.3744°N, 81.5492°W)
Time: 04:11:21
(UTC+00:00)

GPS 2-15 Rocket1 - Pass Details

Date: 15 June 2025
Orbit: 609 x 655 km, 19.8° (Epoch: 11 July)

Event Time Altitude Azimuth Distance (km) Brightness Sun altitude
Exits shadow 08:56:10 27° 187° (S) 1,170 4.1 -17.8°
Maximum altitude 08:56:31 27° 179° (S) 1,161 4.1 -17.7°
Drops below altitude 10° 09:00:25 10° 120° (ESE) 1,959 5.9 -17.1°
Sets 09:03:02 0° 109° (ESE) 2,871 6.9 -16.6°
